Overview Statistics Trail Chart Weather Telemetry Raw packets
 

This is the latest recevied weather packets stored in our database for station/object 9W2CHF-2. If no packets are shown the sender has not sent any weather packets the latest 10 day(s).

<< 14 15 16 17 18 19 20 >>
Time Temp. Humidity Pressure Rain* Wind** Luminosity Snow
1788276664 33.33° C 65% 1013.5 hPa - - - -
1788275764 33.33° C 62% 1013.5 hPa - - - -
1788274863 33.33° C 61% 1013.6 hPa - - - -
1788273963 33.33° C 62% 1013.5 hPa - - - -
1788273063 33.33° C 61% 1013.5 hPa - - - -
1788272162 33.33° C 62% 1013.4 hPa - - - -
1788271262 33.33° C 61% 1013.4 hPa - - - -
1788270362 33.33° C 62% 1013.3 hPa - - - -
1788269461 33.33° C 62% 1013 hPa - - - -
1788268561 33.89° C 60% 1012.9 hPa - - - -
1788267660 33.89° C 60% 1012.8 hPa - - - -
1788266760 33.89° C 59% 1012.6 hPa - - - -
1788265859 33.89° C 59% 1012.6 hPa - - - -
1788264958 33.33° C 62% 1012.4 hPa - - - -
1788264058 33.89° C 61% 1012.1 hPa - - - -
1788263158 33.89° C 62% 1012 hPa - - - -
1788262258 33.33° C 63% 1011.6 hPa - - - -
1788261361 33.33° C 59% 1011.5 hPa - - - -
1788260466 33.33° C 60% 1011.1 hPa - - - -
1788259557 32.78° C 57% 1010.9 hPa - - - -
1788258657 32.78° C 52% 1010.6 hPa - - - -
1788257757 32.78° C 52% 1010.7 hPa - - - -
1788256857 33.33° C 47% 1010.6 hPa - - - -
1788255957 32.22° C 52% 1010.6 hPa - - - -
1788255057 32.22° C 52% 1010.7 hPa - - - -

* Rain since midnight (hover to see other rain measurements)
** Current wind speed in m/s (hover to see current wind gust speed)